| time (UTC) | temp C | wind direction | speed KPH | gust KPH | rain 1hr cm | rain 24hr cm | rain mn cm | humidity % | barometer mb |
| 20260902231503 | 31 | 299 | 3.2 | 8.0 | 0.00 | 0.00 | 0.00 | 72 | 1014.0 |
| 20260902230105 | 32 | 304 | 1.6 | 6.4 | 0.00 | 0.00 | 0.00 | 69 | 1014.2 |
| 20260902224558 | 33 | 317 | 1.6 | 3.2 | 0.00 | 0.00 | 0.00 | 63 | 1014.2 |
| 20260902223115 | 33 | 319 | 1.6 | 8.0 | 0.00 | 0.00 | 0.00 | 62 | 1014.1 |
| 20260902221556 | 34 | 21 | 1.6 | 11.3 | 0.00 | 0.00 | 0.00 | 59 | 1014.1 |
| 20260902220054 | 33 | 316 | 1.6 | 12.9 | 0.00 | 0.00 | 0.00 | 59 | 1014.1 |
| 20260902214554 | 34 | 332 | 4.8 | 14.5 | 0.00 | 0.00 | 0.00 | 56 | 1014.2 |
| 20260902213052 | 35 | 306 | 1.6 | 8.0 | 0.00 | 0.00 | 0.00 | 55 | 1014.2 |
| 20260902211551 | 35 | 41 | 3.2 | 8.0 | 0.00 | 0.00 | 0.00 | 54 | 1014.2 |
| 20260902210048 | 35 | 40 | 8.0 | 12.9 | 0.00 | 0.00 | 0.00 | 54 | 1014.3 |
| 20260902204610 | 35 | 26 | 9.7 | 14.5 | 0.00 | 0.00 | 0.00 | 54 | 1014.5 |
| 20260902203044 | 35 | 30 | 6.4 | 12.9 | 0.00 | 0.00 | 0.00 | 55 | 1014.6 |
| 20260902201542 | 35 | 24 | 1.6 | 14.5 | 0.00 | 0.00 | 0.00 | 55 | 1014.9 |
| 20260902200041 | 35 | 355 | 3.2 | 12.9 | 0.00 | 0.00 | 0.00 | 55 | 1015.1 |
| 20260902194536 | 35 | 300 | 1.6 | 14.5 | 0.00 | 0.00 | 0.00 | 53 | 1015.2 |
| 20260902193036 | 35 | 360 | 8.0 | 14.5 | 0.00 | 0.00 | 0.00 | 54 | 1015.3 |
| 20260902191534 | 35 | 294 | 4.8 | 12.9 | 0.00 | 0.00 | 0.00 | 54 | 1015.3 |
| 20260902190035 | 35 | 27 | 8.0 | 12.9 | 0.00 | 0.00 | 0.00 | 53 | 1015.3 |
| 20260902184534 | 35 | 302 | 1.6 | 9.7 | 0.00 | 0.00 | 0.00 | 59 | 1015.4 |
| 20260902183049 | 35 | 360 | 4.8 | 16.1 | 0.00 | 0.00 | 0.00 | 56 | 1015.5 |
| 20260902181528 | 34 | 360 | 4.8 | 16.1 | 0.00 | 0.00 | 0.00 | 56 | 1015.7 |
| 20260902180025 | 35 | 47 | 8.0 | 14.5 | 0.00 | 0.00 | 0.00 | 56 | 1015.8 |
| 20260902174526 | 34 | 85 | 0.0 | 8.0 | 0.00 | 0.00 | 0.00 | 60 | 1015.8 |
| 20260902173028 | 34 | 84 | 3.2 | 9.7 | 0.00 | 0.00 | 0.00 | 59 | 1016.1 |
| 20260902171520 | 33 | 34 | 8.0 | 11.3 | 0.00 | 0.00 | 0.00 | 61 | 1016.4 |
| 20260902170015 | 33 | 315 | 3.2 | 12.9 | 0.00 | 0.00 | 0.00 | 64 | 1016.6 |
| 20260902164520 | 33 | 309 | 8.0 | 14.5 | 0.00 | 0.00 | 0.00 | 66 | 1016.9 |
| 20260902163009 | 32 | 309 | 4.8 | 14.5 | 0.00 | 0.00 | 0.00 | 67 | 1017.2 |
| 20260902161510 | 32 | 24 | 6.4 | 12.9 | 0.00 | 0.00 | 0.00 | 66 | 1017.4 |
| 20260902160006 | 32 | 120 | 8.0 | 11.3 | 0.00 | 0.00 | 0.00 | 69 | 1017.3 |
| 20260902154602 | 31 | 67 | 3.2 | 12.9 | 0.00 | 0.00 | 0.00 | 70 | 1017.5 |
| 20260902153107 | 31 | 47 | 3.2 | 14.5 | 0.00 | 0.00 | 0.00 | 71 | 1017.4 |
| 20260902151555 | 30 | 68 | 6.4 | 11.3 | 0.00 | 0.00 | 0.00 | 74 | 1017.4 |
| 20260902150048 | 29 | 80 | 8.0 | 14.5 | 0.00 | 0.00 | 0.00 | 76 | 1017.4 |
| 20260902144546 | 28 | 20 | 4.8 | 8.0 | 0.00 | 0.00 | 0.00 | 80 | 1017.3 |
| 20260902143041 | 27 | 313 | 0.0 | 0.0 | 0.00 | 0.00 | 0.00 | 86 | 1017.2 |
| 20260902141538 | 27 | 57 | 0.0 | 8.0 | 0.00 | 0.00 | 0.00 | 87 | 1017.3 |
| 20260902140004 | 26 | 284 | 0.0 | 3.2 | 0.00 | 0.00 | 0.00 | 90 | 1017.2 |
| 20260902134501 | 25 | 285 | 0.0 | 6.4 | 0.00 | 0.00 | 0.00 | 93 | 1017.1 |
| 20260902133104 | 24 | 284 | 1.6 | 8.0 | 0.00 | 0.00 | 0.00 | 95 | 1017.1 |
| 20260902131552 | 23 | 217 | 0.0 | 0.0 | 0.00 | 0.00 | 0.00 | 99 | 1017.2 |
| 20260902130048 | 22 | 217 | 0.0 | 0.0 | 0.00 | 0.00 | 0.00 | 99 | 1017.2 |
| 20260902124544 | 22 | 217 | 0.0 | 0.0 | 0.00 | 0.00 | 0.00 | 100 | 1017.1 |
| 20260902123043 | 21 | 217 | 0.0 | 0.0 | 0.00 | 0.00 | 0.00 | 99 | 1017.1 |
| 20260902121543 | 21 | 217 | 0.0 | 0.0 | 0.00 | 0.00 | 0.00 | 99 | 1017.2 |
| 20260902120041 | 21 | 217 | 0.0 | 0.0 | 0.00 | 0.00 | 0.00 | 99 | 1017.1 |
| 20260902114538 | 20 | 217 | 0.0 | 0.0 | 0.00 | 0.00 | 0.00 | 99 | 1016.9 |
| 20260902113036 | 20 | 217 | 0.0 | 0.0 | 0.00 | 0.00 | 0.00 | 99 | 1016.8 |
| 20260902111533 | 20 | 217 | 0.0 | 0.0 | 0.00 | 0.00 | 0.00 | 98 | 1016.7 |
| 20260902110044 | 20 | 217 | 0.0 | 0.0 | 0.00 | 0.00 | 0.00 | 99 | 1016.5 |
| 20260902104550 | 20 | 217 | 0.0 | 0.0 | 0.00 | 0.00 | 0.00 | 98 | 1016.5 |
| 20260902103046 | 20 | 217 | 0.0 | 0.0 | 0.00 | 0.00 | 0.00 | 98 | 1016.6 |
| 20260902101527 | 20 | 217 | 0.0 | 0.0 | 0.00 | 0.00 | 0.00 | 99 | 1016.6 |
| 20260902100025 | 20 | 217 | 0.0 | 0.0 | 0.00 | 0.00 | 0.00 | 98 | 1016.6 |
| 20260902094522 | 21 | 217 | 0.0 | 0.0 | 0.00 | 0.00 | 0.00 | 98 | 1016.4 |
| 20260902093021 | 21 | 217 | 0.0 | 0.0 | 0.00 | 0.00 | 0.00 | 98 | 1016.4 |
| 20260902091517 | 21 | 217 | 0.0 | 0.0 | 0.00 | 0.00 | 0.00 | 98 | 1016.4 |
| 20260902090024 | 21 | 217 | 0.0 | 0.0 | 0.00 | 0.00 | 0.00 | 98 | 1016.4 |
| 20260902084514 | 21 | 217 | 0.0 | 0.0 | 0.00 | 0.03 | 0.00 | 98 | 1016.2 |
| 20260902083011 | 21 | 217 | 0.0 | 0.0 | 0.00 | 0.03 | 0.00 | 98 | 1016.0 |
| 20260902081509 | 21 | 217 | 0.0 | 0.0 | 0.00 | 0.03 | 0.00 | 98 | 1015.9 |
| 20260902080010 | 21 | 217 | 0.0 | 0.0 | 0.00 | 0.03 | 0.00 | 98 | 1015.8 |
| 20260902074506 | 21 | 217 | 0.0 | 0.0 | 0.00 | 0.03 | 0.00 | 98 | 1015.9 |
| 20260902073006 | 21 | 217 | 0.0 | 0.0 | 0.00 | 0.03 | 0.00 | 98 | 1016.0 |
| 20260902071504 | 21 | 216 | 0.0 | 0.0 | 0.00 | 0.03 | 0.00 | 98 | 1015.8 |
| 20260902070007 | 21 | 216 | 0.0 | 0.0 | 0.00 | 0.03 | 0.00 | 98 | 1015.7 |
| 20260902064605 | 22 | 216 | 0.0 | 0.0 | 0.00 | 0.03 | 0.00 | 98 | 1015.7 |
| 20260902063110 | 22 | 216 | 0.0 | 0.0 | 0.00 | 0.03 | 0.00 | 98 | 1015.7 |
| 20260902061620 | 22 | 216 | 0.0 | 0.0 | 0.00 | 0.03 | 0.00 | 98 | 1015.9 |
| 20260902054554 | 22 | 215 | 0.0 | 0.0 | 0.00 | 0.03 | 0.00 | 98 | 1015.7 |
| 20260902053049 | 22 | 215 | 0.0 | 0.0 | 0.00 | 0.03 | 0.00 | 97 | 1015.5 |
| 20260902051558 | 22 | 215 | 0.0 | 0.0 | 0.00 | 0.03 | 0.00 | 97 | 1015.5 |
| 20260902050040 | 22 | 215 | 0.0 | 0.0 | 0.00 | 0.03 | 0.00 | 97 | 1015.5 |
| 20260902044601 | 22 | 215 | 0.0 | 0.0 | 0.00 | 0.03 | 0.03 | 97 | 1015.6 |
| 20260902043046 | 23 | 215 | 0.0 | 0.0 | 0.00 | 0.03 | 0.03 | 97 | 1015.5 |
| 20260902041543 | 23 | 215 | 0.0 | 0.0 | 0.00 | 0.03 | 0.03 | 97 | 1015.5 |
| 20260902040038 | 23 | 215 | 0.0 | 0.0 | 0.00 | 0.03 | 0.03 | 97 | 1015.5 |
| 20260902034509 | 23 | 215 | 0.0 | 0.0 | 0.00 | 0.03 | 0.03 | 96 | 1015.5 |
| 20260902033008 | 23 | 215 | 0.0 | 1.6 | 0.00 | 0.03 | 0.03 | 96 | 1015.5 |
| 20260902031552 | 23 | 215 | 0.0 | 1.6 | 0.00 | 0.03 | 0.03 | 96 | 1015.4 |
| 20260902030036 | 23 | 214 | 0.0 | 3.2 | 0.00 | 0.03 | 0.03 | 96 | 1015.5 |
| 20260902024508 | 24 | 213 | 0.0 | 0.0 | 0.00 | 0.03 | 0.03 | 95 | 1015.5 |
| 20260902023014 | 24 | 213 | 0.0 | 0.0 | 0.00 | 0.03 | 0.03 | 95 | 1015.6 |
| 20260902021535 | 24 | 213 | 0.0 | 0.0 | 0.00 | 0.03 | 0.03 | 95 | 1015.4 |
| 20260902020035 | 24 | 213 | 0.0 | 1.6 | 0.00 | 0.03 | 0.03 | 94 | 1015.4 |
| 20260902014506 | 25 | 213 | 0.0 | 1.6 | 0.00 | 0.03 | 0.03 | 94 | 1015.4 |
| 20260902013005 | 25 | 213 | 0.0 | 1.6 | 0.00 | 0.03 | 0.03 | 93 | 1015.2 |
| 20260902011501 | 25 | 213 | 0.0 | 3.2 | 0.00 | 0.03 | 0.03 | 92 | 1015.2 |
| 20260902010000 | 25 | 213 | 0.0 | 6.4 | 0.00 | 0.03 | 0.03 | 92 | 1015.1 |
| 20260902004600 | 26 | 213 | 0.0 | 3.2 | 0.00 | 0.03 | 0.03 | 91 | 1014.7 |
| 20260902003100 | 26 | 213 | 0.0 | 6.4 | 0.00 | 0.03 | 0.03 | 90 | 1014.7 |
| 20260902001602 | 26 | 213 | 0.0 | 6.4 | 0.00 | 0.03 | 0.03 | 89 | 1014.7 |
| 20260902000057 | 27 | 211 | 3.2 | 8.0 | 0.00 | 0.03 | 0.03 | 87 | 1014.6 |
| 20260901234604 | 27 | 209 | 4.8 | 8.0 | 0.00 | 0.03 | 0.03 | 85 | 1014.6 |
| 20260901233055 | 30 | 159 | 4.8 | 8.0 | 0.00 | 0.03 | 0.03 | 78 | 1014.5 |